Voltar ao catálogo

HELLAS-SAT 2

AtivoComunicaçõesGEO
NORAD 27811·PAYLOAD·🇬🇷 Greece

Lançado May 13, 2003 de Cape Canaveral Space Force Station

Loading…

TLE

AtualizadoSource: Space-Track

Época: Sep 14, 2026, 06:54 UTC

1 27811U 03020A   26257.28799103 -.00000090  00000-0  00000-0 0  9995
2 27811   7.5707  66.7835 0007519 138.2756 241.9250  1.00272442 43749

Acompanhe HELLAS-SAT 2 em tempo real com AllMySat

Download on the App Store